EN

Hourly Weather Novokucherlinskiy

Today, 18 May, Tuesday

Time Temperature Precipitation Wind Pressure Humidity
00:00 +19°C° 0 mm 9 mps 746 mmHg 78%
01:00 +18°C° 0.3 mm 9 mps 747 mmHg 82%
02:00 +17°C° 0.3 mm 8 mps 747 mmHg 85%
03:00 +17°C° 0.3 mm 8 mps 748 mmHg 89%
04:00 +17°C° 0.7 mm 8 mps 748 mmHg 89%
05:00 +16°C° 0.7 mm 8 mps 748 mmHg 90%
06:00 +16°C° 0.7 mm 8 mps 748 mmHg 90%
07:00 +18°C° 0.2 mm 7 mps 750 mmHg 73%
08:00 +17°C° 0.2 mm 7 mps 750 mmHg 77%
09:00 +17°C° 0.2 mm 8 mps 749 mmHg 80%
10:00 +17°C° 0.1 mm 7 mps 750 mmHg 78%
11:00 +17°C° 0.1 mm 6 mps 750 mmHg 77%
12:00 +19°C° 0.1 mm 5 mps 750 mmHg 75%
13:00 +20°C° 0 mm 5 mps 750 mmHg 67%
14:00 +22°C° 0 mm 5 mps 750 mmHg 60%
15:00 +23°C° 0 mm 5 mps 750 mmHg 52%
16:00 +23°C° 0 mm 4 mps 750 mmHg 54%
17:00 +23°C° 0 mm 4 mps 750 mmHg 55%
18:00 +24°C° 0 mm 3 mps 750 mmHg 56%
19:00 +21°C° 0 mm 3 mps 750 mmHg 61%
20:00 +20°C° 0 mm 2 mps 750 mmHg 67%
21:00 +18°C° 0 mm 2 mps 750 mmHg 72%
22:00 +18°C° 0 mm 2 mps 750 mmHg 73%
23:00 +18°C° 0 mm 1 mps 750 mmHg 75%

Tomorrow, 19 May, Wednesday

Time Temperature Precipitation Wind Pressure Humidity
00:00 +18°C° 0 mm 1 mps 750 mmHg 76%
01:00 +16°C° 0 mm 1 mps 749 mmHg 77%
02:00 +16°C° 0 mm 1 mps 749 mmHg 77%
03:00 +16°C° 0 mm 2 mps 749 mmHg 78%
04:00 +16°C° 0 mm 2 mps 749 mmHg 77%
05:00 +17°C° 0 mm 2 mps 749 mmHg 75%
06:00 +18°C° 0 mm 3 mps 749 mmHg 74%
07:00 +19°C° 0 mm 3 mps 749 mmHg 68%
08:00 +21°C° 0 mm 3 mps 749 mmHg 62%
09:00 +22°C° 0 mm 3 mps 750 mmHg 56%
10:00 +22°C° 0.2 mm 4 mps 750 mmHg 59%
11:00 +22°C° 0.2 mm 5 mps 750 mmHg 62%
12:00 +22°C° 0.2 mm 7 mps 751 mmHg 64%
13:00 +20°C° 0.5 mm 6 mps 751 mmHg 66%
14:00 +19°C° 0.5 mm 6 mps 752 mmHg 67%
15:00 +17°C° 0.5 mm 5 mps 752 mmHg 68%
16:00 +18°C° 0.1 mm 4 mps 753 mmHg 66%
17:00 +19°C° 0.1 mm 4 mps 753 mmHg 64%
18:00 +20°C° 0.1 mm 3 mps 753 mmHg 62%
19:00 +18°C° 0.1 mm 3 mps 753 mmHg 67%
20:00 +17°C° 0.1 mm 3 mps 754 mmHg 73%
21:00 +16°C° 0.1 mm 3 mps 754 mmHg 78%
22:00 +14°C° 0 mm 3 mps 754 mmHg 80%
23:00 +13°C° 0 mm 3 mps 754 mmHg 81%

Day after tomorrow, 20 May, Thursday

Time Temperature Precipitation Wind Pressure Humidity
00:00 +13°C° 0 mm 3 mps 754 mmHg 82%
01:00 +12°C° 0 mm 3 mps 754 mmHg 81%
02:00 +12°C° 0 mm 3 mps 754 mmHg 80%
03:00 +12°C° 0 mm 3 mps 754 mmHg 79%
04:00 +13°C° 0 mm 2 mps 755 mmHg 76%
05:00 +14°C° 0 mm 2 mps 755 mmHg 74%
06:00 +14°C° 0 mm 2 mps 755 mmHg 72%
07:00 +16°C° 0 mm 3 mps 755 mmHg 67%
08:00 +18°C° 0 mm 3 mps 755 mmHg 63%
09:00 +20°C° 0 mm 4 mps 755 mmHg 59%
10:00 +22°C° 0 mm 4 mps 755 mmHg 53%
11:00 +23°C° 0 mm 4 mps 754 mmHg 47%
12:00 +26°C° 0 mm 4 mps 754 mmHg 41%
13:00 +26°C° 0 mm 4 mps 754 mmHg 40%
14:00 +27°C° 0 mm 4 mps 754 mmHg 39%
15:00 +27°C° 0 mm 4 mps 754 mmHg 38%
16:00 +27°C° 0 mm 3 mps 754 mmHg 40%
17:00 +26°C° 0 mm 3 mps 754 mmHg 43%
18:00 +26°C° 0 mm 3 mps 754 mmHg 45%
19:00 +24°C° 0 mm 3 mps 754 mmHg 48%
20:00 +21°C° 0 mm 3 mps 754 mmHg 51%
21:00 +20°C° 0 mm 3 mps 754 mmHg 54%
22:00 +19°C° 0 mm 3 mps 754 mmHg 54%
23:00 +18°C° 0 mm 3 mps 754 mmHg 55%

21 May, Friday

Time Temperature Precipitation Wind Pressure Humidity
00:00 +18°C° 0 mm 4 mps 753 mmHg 56%
01:00 +17°C° 0 mm 4 mps 754 mmHg 55%
02:00 +15°C° 0 mm 4 mps 754 mmHg 55%
03:00 +14°C° 0 mm 4 mps 754 mmHg 54%
04:00 +15°C° 0 mm 4 mps 754 mmHg 54%
05:00 +15°C° 0 mm 4 mps 754 mmHg 55%
06:00 +15°C° 0 mm 4 mps 754 mmHg 55%
07:00 +19°C° 0 mm 6 mps 754 mmHg 49%
08:00 +21°C° 0 mm 7 mps 754 mmHg 42%
09:00 +24°C° 0 mm 9 mps 753 mmHg 36%
10:00 +26°C° 0 mm 9 mps 753 mmHg 35%
11:00 +28°C° 0 mm 9 mps 753 mmHg 33%
12:00 +29°C° 0 mm 9 mps 753 mmHg 32%
13:00 +31°C° 0 mm 9 mps 753 mmHg 32%
14:00 +31°C° 0 mm 9 mps 753 mmHg 31%
15:00 +31°C° 0 mm 9 mps 752 mmHg 31%
16:00 +29°C° 0 mm 9 mps 752 mmHg 34%
17:00 +28°C° 0 mm 9 mps 753 mmHg 36%
18:00 +27°C° 0 mm 9 mps 753 mmHg 39%
19:00 +24°C° 0 mm 9 mps 753 mmHg 41%
20:00 +23°C° 0 mm 8 mps 753 mmHg 43%
21:00 +21°C° 0 mm 8 mps 753 mmHg 44%
22:00 +21°C° 0 mm 8 mps 753 mmHg 47%
23:00 +20°C° 0 mm 7 mps 753 mmHg 50%

22 May, Saturday

Time Temperature Precipitation Wind Pressure Humidity
00:00 +18°C° 0 mm 7 mps 753 mmHg 52%
01:00 +18°C° 0 mm 7 mps 752 mmHg 54%
02:00 +18°C° 0 mm 7 mps 752 mmHg 55%
03:00 +17°C° 0 mm 6 mps 752 mmHg 57%
04:00 +18°C° 0 mm 7 mps 752 mmHg 57%
05:00 +18°C° 0 mm 7 mps 752 mmHg 57%
06:00 +18°C° 0 mm 7 mps 752 mmHg 57%
07:00 +22°C° 0 mm 8 mps 752 mmHg 51%
08:00 +24°C° 0 mm 9 mps 752 mmHg 46%
09:00 +27°C° 0 mm 10 mps 752 mmHg 40%
10:00 +29°C° 0 mm 10 mps 752 mmHg 36%
11:00 +31°C° 0 mm 11 mps 751 mmHg 32%
12:00 +33°C° 0 mm 11 mps 751 mmHg 29%
13:00 +33°C° 0 mm 11 mps 751 mmHg 29%
14:00 +34°C° 0 mm 11 mps 751 mmHg 28%
15:00 +34°C° 0 mm 11 mps 751 mmHg 28%
16:00 +36°C° 0 mm 6 mps 747 mmHg 32%
17:00 +34°C° 0 mm 6 mps 747 mmHg 35%
18:00 +32°C° 0 mm 6 mps 747 mmHg 39%
19:00 +29°C° 0 mm 5 mps 748 mmHg 42%
20:00 +27°C° 0 mm 5 mps 748 mmHg 46%
21:00 +25°C° 0 mm 5 mps 748 mmHg 49%
22:00 +23°C° 0 mm 4 mps 748 mmHg 50%
23:00 +22°C° 0 mm 4 mps 748 mmHg 51%

23 May, Sunday

Time Temperature Precipitation Wind Pressure Humidity
00:00 +21°C° 0 mm 3 mps 748 mmHg 52%
01:00 +21°C° 0 mm 3 mps 747 mmHg 52%
02:00 +21°C° 0 mm 3 mps 747 mmHg 52%
03:00 +20°C° 0 mm 3 mps 746 mmHg 53%
04:00 +20°C° 0 mm 2 mps 746 mmHg 54%
05:00 +21°C° 0 mm 2 mps 746 mmHg 56%
06:00 +22°C° 0 mm 1 mps 746 mmHg 57%
07:00 +24°C° 0 mm 2 mps 746 mmHg 54%
08:00 +26°C° 0 mm 3 mps 746 mmHg 51%
09:00 +27°C° 0 mm 3 mps 745 mmHg 48%
10:00 +29°C° 0 mm 3 mps 745 mmHg 44%
11:00 +32°C° 0 mm 4 mps 745 mmHg 41%
12:00 +34°C° 0 mm 4 mps 745 mmHg 37%
13:00 +35°C° 0 mm 4 mps 744 mmHg 35%
14:00 +36°C° 0 mm 5 mps 744 mmHg 33%
15:00 +37°C° 0 mm 5 mps 744 mmHg 31%
16:00 +36°C° 0 mm 7 mps 744 mmHg 31%
17:00 +34°C° 0 mm 8 mps 744 mmHg 31%
18:00 +33°C° 0 mm 9 mps 744 mmHg 31%
19:00 +31°C° 0 mm 8 mps 744 mmHg 30%
20:00 +28°C° 0 mm 7 mps 745 mmHg 29%
21:00 +27°C° 0 mm 6 mps 745 mmHg 29%
22:00 +24°C° 0 mm 6 mps 745 mmHg 30%
23:00 +23°C° 0 mm 5 mps 745 mmHg 32%
Show more

We Need Your Consent

Meteoprog and our Service Providers may store and access personal data such as cookies, device identifiers or other similar technologies on your device and process such data to personalise content and ads, as well as provide social media features and to analyse the traffic.

  • Store and/or access information on your device

    Cookies, device identifiers or other information can be stored or accessed on your device for the purposes indicated above.

  • Personalised ads and content, ad and content measurement, audience insights, and products development

    Ads and content can be personalised based on a profile. More data can be added to better personalise ads and content. Ad and content performance can be measured. Insights about the audience who saw the ads and content can be derived. Such data can be used to develop or improve user’s experience, systems and software.

By clicking ‘I Agree’ you will allow the use of indicated cookies, device identifiers, web beacons or other similar technologies. Your settings can be changed in the browser on your device.

For certain purposes, legitimate interests may be relied on, rather than consent. You can read more about this in our Privacy and Cookie Policy.